{"data":{"norad_id":63692,"epoch":"2026-05-25T04:17:38.344128Z","epoch_age_seconds":59604,"freshness":"FRESH","line1":"1 63692U 25086F   26145.17891602  .00000042  00000+0  62704-4 0  9997","line2":"2 63692  86.5013 320.7891 0001516  82.2554 277.8752 13.24407767 51814","mean_motion":13.24407767,"eccentricity":0.0001516,"inclination_deg":86.5013,"raan_deg":320.7891,"arg_perigee_deg":82.2554,"mean_anomaly_deg":277.8752,"bstar":6.2704e-5,"rev_number":5181,"period_min":108.72784318245,"perigee_km":1166.7866837207,"apogee_km":1169.0746514375,"semimajor_km":7546.0676675791,"source":"CELESTRAK","updated_at":"2026-05-25T13:38:03.891320Z"}}